User: anonymous   Login
Location: Frankfurt am Main
(50.1109°N, 8.6821°E)
Time: 18:27:38
(UTC+02:00)
Language:

ISS - Orbit

View from above orbital plane
View from above orbital plane
View from above satellite
View from above satellite

Ground track
Ground track

The orbit data is extracted from the following two-line orbital elements,

1 25544U 98067A   21175.52114891 -.00176328  00000-0 -33047-2 0  9995
2 25544  51.6430 306.4635 0002745 125.0258 326.0377 15.48654788289732
Epoch (UTC): 24 June 2021 12:30:27
Eccentricity: 0.0002745
inclination: 51.6430°
perigee height: 419 km
apogee height: 422 km
right ascension of ascending node: 306.4635°
argument of perigee: 125.0258°
revolutions per day: 15.48654788
mean anomaly at epoch: 326.0377°
orbit number at epoch: 28973

The dashed part of the orbit path shows where the satellite is in the earth's shadow,  

DLR